#timestamp,LO_Frequency,Hit,StdDev 
1574002815.8,286046999.5,N
1574002835.7,286046996.6,N
1574002855.5,286047000.7,N
1574002875.4,286047000.6,N
1574002895.2,286047000.3,N
1574002915.0,286047002.8,N
1574002915.9,286047002.8,N
1574002935.8,286047000.5,N
1574002955.6,286047000.6,N
1574002975.5,286047000.3,N
1574002995.3,286047000.0,N
1574003015.1,286047000.7,N
1574003035.9,286047000.4,N
1574003055.7,286047001.0,N
1574003075.5,286047001.0,N
1574003095.4,286046999.9,N
1574003115.2,286047000.7,N
1574003135.1,286047001.9,N
1574003136.0,286047001.9,N
1574003155.8,286047001.9,N
1574003175.6,286047001.6,N
1574003195.5,286047003.3,N
1574003215.3,286047001.9,N
1574003235.1,286047002.7,N
1574003255.9,286047000.2,N
1574003275.7,286047002.2,N
1574003295.6,286047000.5,N
1574003315.4,286047000.7,N
1574003335.2,286047001.0,N
1574003355.1,286047000.9,N
1574003356.0,286047000.9,N
1574003375.8,286046999.7,N
1574003395.6,286047002.8,N
1574003415.5,286047000.1,N
1574003435.3,286047000.3,N
1574003455.2,286047002.7,N
1574003475.9,286047003.8,Y
1574003495.7,286047002.9,P
1574003515.6,286047003.6,P
1574003535.4,286047001.5,N
1574003555.2,286047001.4,N
1574003575.1,286046999.8,N
1574003576.0,286046999.8,N
1574003595.8,286047000.2,N
1574003615.7,286046999.9,N
1574003635.5,286047001.7,N
1574003655.3,286047001.5,N
1574003675.2,286047002.1,N
1574003695.0,286047000.0,N
1574003695.9,286047000.0,N
1574003715.7,286046998.2,N
1574003735.6,286047000.4,N
1574003755.4,286047001.6,N
1574003775.3,286047004.4,Y
1574003795.1,286047000.3,P
1574003815.8,286047000.4,N
1574003835.7,286047000.1,N
1574003855.5,286047001.0,Y
1574003875.4,286046998.9,P
1574003895.2,286047001.0,N
1574003915.0,286047000.1,N
1574003915.9,286047000.1,N
1574003935.8,286047000.5,N
1574003955.6,286047000.9,N
1574003975.4,286047000.7,N
1574003995.3,286047000.5,N
1574004015.1,286047000.7,N
1574004035.8,286047000.7,N
1574004055.7,286047000.1,N
1574004075.5,286047000.9,N
1574004095.4,286046998.5,N
1574004115.2,286047001.0,N
1574004135.0,286047000.6,N
1574004135.9,286047000.6,N
1574004155.8,286047002.4,Y
1574004175.6,286047000.4,P
1574004195.4,286047000.5,P
1574004215.3,286046999.7,P
1574004235.1,286046998.4,Y
1574004255.9,286047000.9,P
1574004275.7,286047000.3,N
1574004295.5,286046998.4,P
1574004315.4,286046996.9,Y
1574004335.2,286046996.5,P
1574004355.1,286046996.6,N
1574004356.0,286046996.6,N
1574004375.8,286046999.1,N
1574004395.6,286046999.0,N
1574004415.5,286046998.3,N
1574004435.3,286047000.0,N
1574004455.1,286047000.6,N
1574004475.9,286046998.8,N
1574004495.7,286047000.7,N
1574004515.5,286046998.8,N
1574004535.4,286047000.5,N
1574004555.2,286047002.8,N
1574004575.1,286046999.7,N
1574004576.0,286046999.7,N
1574004595.8,286046998.2,N
1574004615.6,286046999.9,N
1574004635.5,286046998.5,N
1574004655.3,286046998.6,N
1574004675.1,286047002.4,N
1574004695.9,286047000.7,N
1574004715.7,286046998.2,N
1574004735.6,286046999.4,N
1574004755.4,286046998.8,N
1574004775.2,286047001.2,N
1574004795.1,286046998.9,N
1574004796.0,286046998.9,N
1574004815.8,286046999.2,N
1574004835.6,286046997.6,N
1574004855.5,286046997.2,N
1574004875.3,286046995.4,Y
1574004895.2,286046997.7,P
1574004915.9,286046998.6,N
1574004935.7,286046998.6,N
1574004955.6,286047000.7,N
1574004975.4,286046998.7,N
1574004995.2,286046998.4,N
1574005015.1,286047001.1,N
1574005016.0,286047001.1,N
1574005035.8,286046999.3,N
1574005055.7,286046999.0,N
1574005075.5,286046999.1,N
1574005095.3,286046998.2,N
1574005115.2,286046998.3,N
1574005135.0,286046998.3,N
1574005135.9,286046998.3,N
1574005155.8,286046996.9,Y
1574005175.6,286046998.1,P
1574005195.4,286046998.2,P
1574005215.3,286047000.8,N
1574005235.1,286046998.7,N
1574005255.8,286047000.5,N
1574005275.7,286047000.3,N
1574005295.5,286047000.4,N
1574005315.4,286047000.7,N
1574005335.2,286046998.2,N
1574005355.0,286046998.5,N
1574005355.9,286046998.5,N
1574005375.8,286046998.2,N
1574005395.6,286046999.6,N
1574005415.4,286046997.1,N
1574005435.3,286046996.7,N
1574005455.1,286046997.3,N
1574005475.9,286046998.9,N
1574005495.7,286046998.9,N
1574005515.5,286046998.8,N
1574005535.4,286046999.1,N
1574005555.2,286046996.9,N
1574005575.0,286046996.8,N
1574005575.9,286046996.8,N
1574005595.8,286046995.0,Y
1574005615.6,286046999.1,P
1574005635.5,286046999.4,N
1574005655.3,286046997.1,P
1574005675.1,286046997.9,N
1574005695.9,286046996.7,Y
1574005715.7,286046998.6,P
1574005735.5,286046998.4,P
1574005755.4,286046999.1,P
1574005775.2,286047001.1,Y
1574005795.1,286047002.9,P
1574005796.0,286047002.9,N
1574005815.8,286047002.9,N
1574005835.6,286047005.5,N
1574005855.5,286047005.9,N
1574005875.3,286047003.0,N
1574005895.2,286047003.8,N
1574005915.9,286047003.1,N
1574005935.7,286047003.2,N
1574005955.6,286047003.5,N
1574005975.4,286047003.1,N
1574005995.2,286047003.7,N
1574006015.1,286047003.2,N
1574006016.0,286047003.2,N
1574006035.8,286047003.4,N
1574006055.7,286047003.8,N
1574006075.5,286047005.8,Y
1574006095.3,286047002.7,P
1574006115.2,286047002.4,P
1574006135.0,286047002.7,P
1574006135.9,286047002.7,Y
1574006155.7,286046996.7,P
1574006175.6,286046997.7,N
1574006195.4,286046998.0,N
1574006215.3,286046997.7,N
1574006235.1,286046997.2,N
1574006236.0,286046997.2,N
1574006255.8,286046995.3,N
1574006275.7,286046995.7,N
1574006295.5,286046997.6,N
1574006315.3,286046997.5,N
1574006335.2,286046999.5,N
1574006355.0,286046999.3,N
1574006355.9,286046999.3,N
1574006375.8,286046996.9,N
1574006395.6,286046996.9,N
